#timestamp,LO_Frequency,Hit,StdDev 
1563674415.9,286046996.2,N
1563674435.7,286046995.1,N
1563674455.6,286046996.1,N
1563674475.4,286046994.1,N
1563674495.2,286046991.9,Y
1563674515.1,286046997.9,P
1563674516.0,286046997.9,N
1563674535.8,286046997.1,N
1563674555.7,286046996.5,Y
1563674575.5,286046998.4,P
1563674595.3,286046999.6,N
1563674615.2,286046997.6,N
1563674635.0,286046997.2,Y
1563674635.9,286046997.2,P
1563674655.8,286046998.2,P
1563674675.6,286046999.1,N
1563674695.4,286046996.6,Y
1563674715.3,286046998.8,P
1563674735.1,286046997.0,P
1563674755.9,286046997.6,P
1563674775.7,286046998.0,Y
1563674795.5,286046998.5,P
1563674815.4,286047000.9,N
1563674835.2,286046998.4,N
1563674855.0,286046998.4,N
1563674855.9,286046998.4,N
1563674875.8,286046999.3,N
1563674895.6,286047000.7,N
1563674915.5,286047000.7,N
1563674935.3,286047001.0,N
1563674955.1,286046998.6,N
1563674975.9,286047000.5,N
1563674995.7,286046998.6,N
1563675015.6,286047000.4,N
1563675035.4,286046998.1,N
1563675055.2,286047000.3,N
1563675075.1,286046999.7,N
1563675076.0,286046999.7,N
1563675095.8,286047001.0,N
1563675115.6,286047000.7,N
1563675135.5,286046998.2,N
1563675155.3,286047002.4,N
1563675175.2,286047001.8,N
1563675195.9,286047002.4,N
1563675215.7,286047001.9,N
1563675235.6,286047002.1,N
1563675255.4,286047004.4,Y
1563675275.3,286047003.7,P
1563675295.1,286047005.5,N
1563675296.0,286047005.5,N
1563675315.8,286047004.6,N
1563675335.7,286047003.3,N
1563675355.5,286047003.9,N
1563675375.3,286047001.5,N
1563675395.2,286047004.2,N
1563675415.0,286047006.8,Y
1563675415.9,286047006.8,P
1563675435.8,286047003.9,N
1563675455.6,286047002.5,N
1563675475.4,286047002.8,N
1563675495.3,286047002.1,N
1563675515.1,286047002.7,N
1563675535.9,286047002.0,N
1563675555.7,286047002.5,N
1563675575.5,286047001.7,N
1563675595.4,286047004.2,N
1563675615.2,286046999.8,N
1563675635.1,286047002.4,N
1563675636.0,286047002.4,N
1563675655.8,286047002.0,N
1563675675.6,286047004.0,N
1563675695.5,286047002.3,N
1563675715.3,286047003.0,N
1563675735.1,286047001.4,N
1563675755.9,286047003.2,N
1563675775.7,286047001.7,N
1563675795.6,286047002.0,N
1563675815.4,286047000.3,N
1563675835.2,286047002.5,N
1563675855.1,286047002.3,N
1563675856.0,286047002.3,N
1563675875.8,286046999.8,N
1563675895.7,286047000.6,N
1563675915.5,286047002.3,N
1563675935.3,286047002.5,N
1563675955.2,286046999.7,N
1563675975.0,286047002.0,N
1563675975.9,286047002.0,N
1563675995.7,286047002.7,N
1563676015.6,286047002.6,N
1563676035.4,286047002.3,N
1563676055.3,286047002.6,N
1563676075.1,286047002.8,N
1563676076.0,286047002.8,N
1563676095.8,286047001.9,N
1563676115.7,286047003.9,Y
1563676135.5,286047000.9,P
1563676155.4,286046998.5,N
1563676175.2,286046998.1,N
1563676195.0,286047001.2,N
1563676195.9,286047001.2,N
1563676215.8,286047002.4,N
1563676235.6,286046998.1,N
1563676255.5,286047002.7,N
1563676275.3,286047001.8,N
1563676295.1,286047000.5,N
1563676315.9,286047002.4,N
1563676335.7,286047000.3,N
1563676355.5,286047000.2,N
1563676375.4,286046998.1,N
1563676395.2,286047002.1,N
1563676415.1,286047001.6,N
1563676416.0,286047001.6,N
1563676435.8,286047002.2,N
1563676455.6,286047002.2,N
1563676475.5,286047001.5,N
1563676495.3,286047003.9,N
1563676515.2,286047001.5,N
1563676535.9,286047001.7,N
1563676555.7,286047004.2,N
1563676575.6,286047002.6,N
1563676595.4,286047000.1,N
1563676615.2,286047003.9,N
1563676635.1,286047002.3,N
1563676636.0,286047002.3,N
1563676655.8,286046999.9,N
1563676675.7,286047000.9,N
1563676695.5,286046998.2,N
1563676715.4,286047000.5,N
1563676735.2,286046998.4,N
1563676755.0,286047000.0,N
1563676755.9,286047000.0,N
1563676775.8,286047002.0,N
1563676795.6,286047000.7,N
1563676815.5,286047000.8,N
1563676835.3,286046998.5,N
1563676855.1,286047000.5,N
1563676875.9,286047000.5,N
1563676895.7,286047001.5,N
1563676915.5,286047002.3,N
1563676935.4,286047002.8,N
1563676955.2,286047000.7,N
1563676975.1,286046998.1,N
1563676976.0,286046998.1,N
1563676995.8,286047002.5,N
1563677015.6,286047001.1,N
1563677035.5,286047000.8,N
1563677055.3,286047002.7,N
1563677075.2,286047000.1,N
1563677095.9,286047002.5,N
1563677115.7,286047000.6,N
1563677135.6,286047001.2,N
1563677155.4,286046999.9,N
1563677175.2,286047000.1,N
1563677195.1,286047002.0,N
1563677196.0,286047002.0,N
1563677215.8,286047005.8,Y
1563677235.7,286047005.7,P
1563677255.5,286047004.7,N
1563677275.3,286047004.8,N
1563677295.2,286047007.6,Y
1563677315.0,286047004.4,P
1563677315.9,286047004.4,P
1563677335.8,286047003.8,P
1563677355.7,286047002.9,Y
1563677375.5,286047001.2,P
1563677395.4,286046998.9,N
1563677415.2,286046999.1,N
1563677435.0,286046999.1,N
1563677435.9,286046999.1,N
1563677455.8,286046998.7,N
1563677475.6,286046999.2,N
1563677495.4,286046997.2,N
1563677515.3,286046997.4,N
1563677535.1,286046997.9,N
1563677555.9,286046997.9,N
1563677575.7,286046997.8,N
1563677595.5,286046994.9,N
1563677615.4,286046995.7,N
1563677635.2,286046995.1,N
1563677655.1,286046993.3,Y
1563677656.0,286046993.3,P
1563677675.8,286046997.4,N
1563677695.6,286046997.3,N
1563677715.5,286046997.8,N
1563677735.3,286046997.9,N
1563677755.1,286046994.9,Y
1563677775.9,286046999.0,P
1563677795.7,286046998.8,N
1563677815.6,286046997.1,P
1563677835.4,286046999.4,N
1563677855.2,286046999.2,N
1563677875.1,286046999.2,N
1563677876.0,286046999.2,N
1563677895.8,286046998.3,N
1563677915.6,286046998.6,N
1563677935.5,286046998.7,N
1563677955.3,286046999.0,N
1563677975.2,286046999.2,N
1563677995.9,286046999.6,N
